Latest Weather Observations for Williamtown

IDN60901

Issued at 7:31 pm EST Monday 6 July 2015 (issued every 10 minutes, with the page automatically refreshed every 10 minutes)

About weather observations | Map of Sydney area stations | Latest observations for Sydney area | Other Formats
Station Details ID: 061078 Name: WILLIAMTOWN RAAF Lat: -32.79 Lon: 151.84 Height: 9.0 m
Data from the previous 72 hours. | See also: Recent months at Williamtown
Date/Time
EST
Tmp

°C
App
Tmp
°C
Dew
Point
°C
Rel
Hum
%
Delta-T

°C
Wind Press
QNH
hPa
Press
MSL
hPa
Rain
since
9 am
mm
Dir
 
Spd
km/h
Gust
km/h
Spd
kts
Gust
kts
06/06:30pm 12.5 6.0 0.2 43 5.1 WNW 24 32 13 17 1015.7 1015.7 0.0
06/05:30pm 12.5 7.2 -0.5 40 5.3 WNW 17 22 9 12 1014.9 1014.9 0.0
06/05:00pm 13.8 7.7 -2.0 33 6.3 WNW 20 30 11 16 1014.4 1014.4 0.0
06/04:30pm 14.8 8.1 -1.0 34 6.5 WNW 24 32 13 17 1014.3 1014.3 0.0
06/04:00pm 15.7 8.6 -1.6 30 7.1 WNW 26 35 14 19 1014.0 1014.0 0.0
06/03:30pm 16.3 8.4 -1.2 30 7.3 WNW 30 46 16 25 1014.0 1014.0 0.0
06/03:24pm 16.3 8.7 -2.0 28 7.5 WNW 28 46 15 25 1013.9 1013.9 0.0
06/03:00pm 16.8 9.6 -1.9 28 7.7 WNW 26 33 14 18 1014.0 1014.0 0.0
06/02:42pm 16.7 9.1 -2.5 27 7.8 WNW 28 48 15 26 1013.9 1013.9 0.0
06/02:30pm 16.6 9.1 -1.4 29 7.5 WNW 28 39 15 21 1013.8 1013.8 0.0
06/02:00pm 17.0 9.3 -0.3 31 7.4 WNW 30 46 16 25 1013.7 1013.7 0.0
06/01:30pm 16.7 9.3 -0.5 31 7.3 WNW 28 50 15 27 1013.8 1013.8 0.0
06/01:09pm 17.0 9.0 1.4 35 6.9 WNW 33 52 18 28 1014.0 1014.0 0.0
06/01:00pm 16.5 8.1 1.3 36 6.7 WNW 35 50 19 27 1014.1 1014.1 0.0
06/12:54pm 16.3 8.5 1.6 37 6.5 WNW 32 50 17 27 1014.2 1014.2 0.0
06/12:30pm 16.3 7.2 1.6 37 6.5 WNW 39 52 21 28 1014.6 1014.6 0.0
06/12:00pm 15.8 8.0 2.7 41 5.9 WNW 33 46 18 25 1015.1 1015.1 0.0
06/11:30am 15.5 7.0 3.4 44 5.5 WNW 37 54 20 29 1015.5 1015.5 0.0
06/11:00am 14.9 6.0 3.1 45 5.3 WNW 39 52 21 28 1015.7 1015.7 0.0
06/10:36am 14.2 5.2 2.7 46 5.1 WNW 39 57 21 31 1016.1 1016.1 0.0
06/10:30am 14.1 6.0 3.2 48 4.9 WNW 35 50 19 27 1016.1 1016.1 0.0
06/10:00am 13.2 6.3 2.8 49 4.6 NW 28 37 15 20 1016.5 1016.5 0.0
06/09:30am 11.8 5.8 3.1 55 3.8 NW 24 33 13 18 1016.9 1016.9 0.0
06/08:54am 10.9 4.9 3.4 60 3.3 NW 24 35 13 19 1017.1 1017.1 0.0
06/08:30am 9.9 7.0 4.8 70 2.3 NNW 9 11 5 6 1017.2 1017.2 0.0
06/08:00am 8.3 5.6 3.9 74 1.9 NW 7 11 4 6 1017.4 1017.4 0.0
06/07:30am 7.5 3.6 3.2 74 1.8 NW 13 20 7 11 1017.4 1017.4 0.0
06/07:00am 4.7 1.0 2.5 86 0.9 NW 11 15 6 8 1017.4 1017.4 0.0
06/05:30am 4.9 1.0 3.4 90 0.6 NW 13 15 7 8 1016.9 1016.9 0.0
06/05:00am 4.1 1.0 3.4 95 0.3 NW 9 11 5 6 1016.9 1016.9 0.0
06/04:30am 4.7 3.5 4.5 99 0.1 CALM 0 2 0 1 1016.9 1016.9 0.0
06/04:00am 5.8 2.2 4.9 94 0.4 WNW 13 13 7 7 1017.0 1017.0 0.0
06/03:30am 5.7 2.8 4.5 92 0.5 NW 9 13 5 7 1017.2 1017.2 0.0
06/03:00am 5.6 1.6 4.7 94 0.4 NW 15 15 8 8 1017.5 1017.5 0.0
06/02:30am 6.0 2.0 4.8 92 0.5 NW 15 17 8 9 1017.9 1017.9 0.0
06/02:00am 5.7 2.5 5.0 95 0.3 NW 11 13 6 7 1018.0 1018.0 0.0
06/01:30am 5.4 2.5 4.9 97 0.2 WNW 9 9 5 5 1018.3 1018.3 0.0
06/01:00am 5.9 3.1 5.2 95 0.3 NNW 9 11 5 6 1018.3 1018.3 0.0
06/12:30am 5.0 3.7 4.3 95 0.3 CALM 0 0 0 0 1018.5 1018.5 0.0
 
Date/Time
EST
Tmp

°C
App
Tmp
°C
Dew
Point
°C
Rel
Hum
%
Delta-T

°C
Wind Press
QNH
hPa
Press
MSL
hPa
Rain
since
9 am
mm
Dir
 
Spd
km/h
Gust
km/h
Spd
kts
Gust
kts
05/11:30pm 5.0 3.7 4.3 95 0.3 CALM 0 0 0 0 1018.6 1018.6 0.0
05/11:00pm 5.4 4.2 4.7 95 0.3 CALM 0 0 0 0 1018.7 1018.7 0.0
05/10:30pm 5.0 3.7 4.3 95 0.3 CALM 0 0 0 0 1018.9 1018.9 0.0
05/10:00pm 5.8 4.7 4.9 94 0.4 CALM 0 0 0 0 1018.9 1018.9 0.0
05/09:30pm 6.3 4.0 4.7 89 0.7 NW 6 9 3 5 1019.0 1019.0 0.0
05/09:00pm 6.2 5.2 5.5 95 0.3 CALM 0 0 0 0 1019.1 1019.1 0.0
05/08:30pm 6.4 5.3 5.3 93 0.5 CALM 0 0 0 0 1019.3 1019.3 0.0
05/08:00pm 6.8 5.8 5.7 93 0.5 CALM 0 0 0 0 1019.3 1019.3 0.0
05/07:30pm 8.5 7.7 6.3 86 1.0 CALM 0 0 0 0 1019.1 1019.1 0.0
05/07:00pm 9.1 6.2 6.5 84 1.2 N 11 13 6 7 1019.0 1019.0 0.0
05/06:30pm 7.9 5.7 6.1 88 0.8 NNE 7 11 4 6 1018.9 1018.9 0.0
05/06:00pm 9.8 7.9 6.8 81 1.4 NE 6 9 3 5 1018.7 1018.7 0.0
05/05:30pm 10.8 9.2 6.5 75 2.0 NW 4 7 2 4 1018.7 1018.7 0.0
05/05:00pm 13.8 11.5 5.7 58 3.8 WNW 7 9 4 5 1018.6 1018.6 0.0
05/04:30pm 16.0 12.2 4.1 45 5.5 WNW 13 17 7 9 1018.6 1018.6 0.0
05/04:00pm 17.3 13.5 3.8 40 6.3 WNW 13 19 7 10 1018.7 1018.7 0.0
05/03:30pm 17.9 12.9 3.5 38 6.7 WNW 19 26 10 14 1018.5 1018.5 0.0
05/03:00pm 18.0 13.3 3.3 37 6.8 WNW 17 24 9 13 1018.4 1018.4 0.0
05/02:30pm 18.1 12.9 3.5 38 6.8 WNW 20 32 11 17 1018.5 1018.5 0.0
05/02:00pm 17.9 11.9 3.5 38 6.7 W 24 33 13 18 1018.7 1018.7 0.0
05/01:30pm 17.7 12.5 3.5 38 6.6 NW 20 35 11 19 1018.9 1018.9 0.0
05/01:00pm 16.8 10.7 3.0 39 6.3 WNW 24 30 13 16 1019.3 1019.3 0.0
05/12:30pm 16.3 11.1 2.2 38 6.3 NW 19 26 10 14 1020.0 1020.0 0.0
05/12:00pm 15.3 9.4 1.9 40 5.9 NW 22 28 12 15 1020.5 1020.5 0.0
05/11:30am 14.0 8.6 2.4 45 5.1 NW 20 32 11 17 1021.3 1021.3 0.0
05/11:00am 12.4 6.1 1.6 47 4.6 NW 24 30 13 16 1021.9 1021.9 0.0
05/10:30am 11.5 6.5 1.5 50 4.2 NW 17 22 9 12 1022.4 1022.4 0.0
05/10:00am 10.4 5.7 0.9 52 3.9 NW 15 19 8 10 1022.4 1022.4 0.0
05/09:30am 9.5 4.4 0.9 55 3.5 NW 17 20 9 11 1022.5 1022.5 0.0
05/09:00am 8.7 3.9 0.1 55 3.4 NW 15 19 8 10 1022.3 1022.3 0.0
05/08:30am 7.1 2.7 0.2 61 2.7 NW 13 17 7 9 1022.4 1022.4 0.0
05/08:00am 5.5 0.7 0.0 68 2.1 NW 15 19 8 10 1022.5 1022.5 0.0
05/07:30am 4.7 0.3 0.2 72 1.7 NW 13 15 7 8 1022.3 1022.3 0.0
05/07:00am 4.7 -1.0 -0.7 68 2.0 NW 19 26 10 14 1022.2 1022.2 0.0
05/06:30am 4.6 -0.3 -0.5 69 1.9 NW 15 19 8 10 1022.1 1022.1 0.0
05/06:00am 4.7 -0.6 -0.7 68 2.0 NW 17 20 9 11 1021.9 1021.9 0.0
05/05:30am 4.4 -0.5 -0.8 69 1.9 NW 15 17 8 9 1021.9 1021.9 0.0
05/05:00am 4.1 -0.5 -0.8 70 1.8 NW 13 15 7 8 1021.6 1021.6 0.0
05/04:30am 4.4 0.6 -0.4 71 1.8 NW 9 11 5 6 1021.6 1021.6 0.0
05/04:00am 4.6 0.5 -0.2 71 1.8 NW 11 13 6 7 1021.5 1021.5 0.0
05/03:30am 4.4 0.0 0.2 74 1.6 NW 13 17 7 9 1021.7 1021.7 0.0
05/03:00am 4.8 0.7 -0.3 69 1.9 WNW 11 15 6 8 1021.8 1021.8 0.0
05/02:30am 5.0 1.3 -0.3 68 2.0 WNW 9 13 5 7 1021.8 1021.8 0.0
05/02:00am 5.9 1.8 -0.4 64 2.4 NW 11 13 6 7 1021.9 1021.9 0.0
05/01:30am 6.6 2.0 -0.8 59 2.8 NNW 13 17 7 9 1021.7 1021.7 0.0
05/01:00am 6.2 1.7 -0.4 62 2.5 NW 13 15 7 8 1021.8 1021.8 0.0
05/12:30am 6.7 2.2 -0.4 60 2.7 WNW 13 15 7 8 1021.8 1021.8 0.0
05/12:00am 6.4 2.6 -0.4 62 2.6 NW 9 11 5 6 1021.9 1021.9 0.0
 
Date/Time
EST
Tmp

°C
App
Tmp
°C
Dew
Point
°C
Rel
Hum
%
Delta-T

°C
Wind Press
QNH
hPa
Press
MSL
hPa
Rain
since
9 am
mm
Dir
 
Spd
km/h
Gust
km/h
Spd
kts
Gust
kts
04/11:30pm 6.9 2.1 -0.1 61 2.7 NW 15 17 8 9 1021.9 1021.9 0.0
04/11:00pm 6.5 1.6 -0.3 62 2.6 NW 15 17 8 9 1021.9 1021.9 0.0
04/10:30pm 6.9 2.7 -0.7 58 2.9 NW 11 13 6 7 1021.9 1021.9 0.0
04/10:00pm 5.8 2.2 0.4 68 2.1 NW 9 11 5 6 1021.9 1021.9 0.0
04/09:30pm 6.5 2.0 -0.3 62 2.6 NW 13 13 7 7 1022.0 1022.0 0.0
04/09:00pm 5.2 1.4 1.7 78 1.4 WNW 11 13 6 7 1022.1 1022.1 0.0
04/08:30pm 5.1 3.4 1.8 79 1.3 CALM 0 0 0 0 1022.2 1022.2 0.0
04/08:00pm 6.0 4.4 2.3 77 1.5 CALM 0 0 0 0 1022.2 1022.2 0.0
04/07:30pm 6.0 4.4 2.3 77 1.5 CALM 0 0 0 0 1021.9 1021.9 0.0
04/07:00pm 7.6 5.9 2.0 67 2.3 CALM 0 0 0 0 1021.7 1021.7 0.0
04/06:30pm 8.0 5.1 1.6 64 2.6 NW 6 7 3 4 1021.4 1021.4 0.0
04/06:00pm 11.0 7.1 -1.6 41 4.9 W 9 15 5 8 1021.3 1021.3 0.0
04/05:30pm 12.2 6.7 -2.2 36 5.6 WNW 17 24 9 13 1020.9 1020.9 0.0
04/05:00pm 13.5 8.0 -1.8 34 6.1 WNW 17 22 9 12 1020.6 1020.6 0.0
04/04:30pm 15.4 9.6 -1.5 31 6.9 W 19 26 10 14 1020.5 1020.5 0.0
04/04:00pm 15.6 8.8 -1.5 31 7.0 W 24 33 13 18 1020.3 1020.3 0.0
04/03:30pm 16.8 8.6 -1.2 29 7.5 WNW 32 46 17 25 1020.1 1020.1 0.0
04/03:00pm 17.0 9.2 -0.8 30 7.5 WNW 30 39 16 21 1019.9 1019.9 0.0
04/02:43pm 17.1 9.5 -1.8 27 7.8 WNW 28 48 15 26 1019.8 1019.8 0.0
04/02:30pm 17.1 8.1 -3.0 25 8.1 WNW 35 46 19 25 1019.8 1019.8 0.0
04/02:00pm 17.1 9.2 -1.4 28 7.7 WNW 30 41 16 22 1019.7 1019.7 0.0
04/01:30pm 16.6 7.6 0.3 33 7.0 WNW 37 48 20 26 1019.7 1019.7 0.0
04/01:00pm 16.3 7.9 1.5 36 6.5 NW 35 44 19 24 1020.2 1020.2 0.0
04/12:30pm 16.3 8.5 3.1 41 6.0 WNW 33 46 18 25 1020.9 1020.9 0.0
04/12:00pm 15.4 7.0 3.5 45 5.4 NW 37 50 20 27 1021.3 1021.3 0.0
04/11:53am 15.0 7.4 3.8 47 5.1 NW 33 50 18 27 1021.4 1021.4 0.0
04/11:30am 14.8 9.0 4.4 49 4.8 WNW 24 32 13 17 1022.1 1022.1 0.0
04/11:11am 13.9 9.0 4.3 52 4.4 NW 19 37 10 20 1022.7 1022.7 0.0
04/11:00am 12.2 8.4 5.7 64 3.0 NNW 15 19 8 10 1022.9 1022.9 0.0
04/10:30am 11.8 6.9 5.0 63 3.1 WNW 20 28 11 15 1023.2 1023.2 0.0
04/10:00am 10.8 6.1 5.1 68 2.6 NW 19 26 10 14 1023.6 1023.6 0.0
04/09:30am 9.8 6.5 6.3 79 1.6 NW 13 17 7 9 1023.8 1023.8 0.0
04/09:00am 8.5 5.5 5.8 83 1.2 WNW 11 15 6 8 1023.7 1023.7 0.0
04/08:30am 7.0 3.1 5.2 88 0.8 WNW 15 19 8 10 1023.6 1023.6 0.0
04/08:00am 5.8 1.3 4.4 91 0.6 NW 17 19 9 10 1023.4 1023.4 0.0
04/07:30am 4.5 0.3 3.8 95 0.3 NW 15 17 8 9 1023.8 1023.8 0.0
04/07:00am 3.6 -0.7 3.4 99 0.1 NW 15 17 8 9 1023.7 1023.7 0.0
04/06:30am 3.8 -0.1 3.3 97 0.2 W 13 19 7 10 1023.6 1023.6 0.0
04/06:00am 4.3 0.5 3.8 97 0.2 NW 13 15 7 8 1023.1 1023.1 0.0
04/05:30am 4.8 0.7 4.3 97 0.2 NW 15 17 8 9 1023.3 1023.3 0.0
04/05:00am 4.8 0.7 4.3 97 0.2 NW 15 17 8 9 1023.3 1023.3 0.0
04/04:30am 4.0 1.3 3.8 99 0.1 NW 7 9 4 5 1023.8 1023.8 0.0
04/04:00am 4.4 1.0 3.9 97 0.2 NW 11 13 6 7 1023.9 1023.9 0.0
04/03:30am 4.4 0.2 3.9 97 0.2 WNW 15 17 8 9 1023.7 1023.7 0.0
04/03:00am 4.3 0.8 3.6 95 0.3 WNW 11 13 6 7 1023.8 1023.8 0.0
04/02:30am 5.3 2.8 4.6 95 0.3 NNW 7 9 4 5 1023.8 1023.8 0.0
04/02:00am 5.8 1.8 4.9 94 0.4 NW 15 15 8 8 1024.3 1024.3 0.0
04/01:30am 5.7 2.1 5.0 95 0.3 NW 13 15 7 8 1024.6 1024.6 0.0
04/01:00am 5.2 2.3 4.5 95 0.3 NW 9 11 5 6 1024.7 1024.7 0.0
04/12:30am 5.6 2.7 4.7 94 0.4 NW 9 11 5 6 1024.9 1024.9 0.0
04/12:00am 5.2 1.9 4.3 94 0.4 NW 11 13 6 7 1025.1 1025.1 0.0
 
Date/Time
EST
Tmp

°C
App
Tmp
°C
Dew
Point
°C
Rel
Hum
%
Delta-T

°C
Wind Press
QNH
hPa
Press
MSL
hPa
Rain
since
9 am
mm
Dir
 
Spd
km/h
Gust
km/h
Spd
kts
Gust
kts
03/11:30pm 5.0 3.8 4.5 97 0.2 CALM 0 0 0 0 1025.2 1025.2 0.0
03/11:00pm 4.9 3.6 4.2 95 0.3 CALM 0 0 0 0 1025.4 1025.4 0.0
03/10:30pm 5.0 3.7 4.0 93 0.4 CALM 0 0 0 0 1025.5 1025.5 0.0
03/10:00pm 5.5 4.3 4.6 94 0.4 CALM 0 0 0 0 1025.6 1025.6 0.0
03/09:30pm 5.8 4.7 4.9 94 0.4 CALM 0 0 0 0 1025.7 1025.7 0.0
03/09:00pm 6.9 4.2 5.5 91 0.6 NNW 9 9 5 5 1025.9 1025.9 0.0
03/08:30pm 6.8 4.0 5.2 89 0.7 NW 9 11 5 6 1025.8 1025.8 0.0
03/08:00pm 7.7 5.3 5.4 85 1.0 W 7 7 4 4 1025.8 1025.8 0.0

Latest Capital City Observations: Canberra | Sydney | Melbourne | Brisbane | Adelaide | Perth | Hobart | Darwin

Other Formats:

Comma delimited format used in spreadsheet applications
http://www.bom.gov.au/fwo/IDN60901/IDN60901.94776.axf

JavaScript Object Notation format (JSON) in row-major order
http://www.bom.gov.au/fwo/IDN60901/IDN60901.94776.json